This is the latest recevied weather packets stored in our database for station/object IK6ZNK-3. If no packets are shown the sender has not sent any weather packets the latest 10 day(s).
| Time | Temp. | Humidity | Pressure | Rain* | Wind** | Luminosity | Snow |
|---|---|---|---|---|---|---|---|
| 1777530607 | 11.11° C | 99% | 1011.5 hPa | 2.79 mm | - | - | - |
| 1777530006 | 11.67° C | 99% | 1011.4 hPa | 2.79 mm | - | - | - |
| 1777529407 | 11.67° C | 99% | 1011.3 hPa | 3.3 mm | - | - | - |
| 1777528807 | 11.67° C | 99% | 1011.6 hPa | 3.81 mm | - | - | - |
| 1777528207 | 11.67° C | 99% | 1011.3 hPa | 3.81 mm | - | - | - |
| 1777527607 | 11.67° C | 99% | 1011 hPa | 3.3 mm | - | - | - |
| 1777527007 | 11.67° C | 98% | 1010.8 hPa | 3.3 mm | - | - | - |
| 1777526407 | 11.67° C | 98% | 1010.8 hPa | 2.79 mm | - | - | - |
| 1777525806 | 12.22° C | 98% | 1010.5 hPa | 2.03 mm | - | - | - |
| 1777525207 | 12.22° C | 98% | 1010.4 hPa | 1.78 mm | - | - | - |
| 1777524607 | 11.67° C | 98% | 1010.4 hPa | 2.03 mm | - | - | - |
| 1777524007 | 11.67° C | 98% | 1010.4 hPa | 3.3 mm | - | - | - |
| 1777523407 | 12.22° C | 98% | 1010.4 hPa | 3.81 mm | - | - | - |
| 1777522807 | 12.22° C | 98% | 1010.5 hPa | 4.83 mm | - | - | - |
| 1777522207 | 12.22° C | 98% | 1010.4 hPa | 4.57 mm | - | - | - |
| 1777521607 | 12.22° C | 98% | 1010.4 hPa | 3.81 mm | - | - | - |
| 1777521007 | 12.22° C | 98% | 1010.5 hPa | 3.56 mm | - | - | - |
| 1777520409 | 12.22° C | 98% | 1010.1 hPa | 3.05 mm | - | - | - |
| 1777519807 | 12.78° C | 97% | 1010.3 hPa | 2.79 mm | - | - | - |
| 1777519209 | 12.78° C | 97% | 1009.9 hPa | 1.78 mm | - | - | - |
| 1777518607 | 13.33° C | 97% | 1010.1 hPa | 2.03 mm | - | - | - |
| 1777518009 | 13.33° C | 97% | 1009.9 hPa | 2.03 mm | - | - | - |
| 1777517407 | 13.33° C | 97% | 1009.9 hPa | 2.03 mm | - | - | - |
| 1777516808 | 13.33° C | 97% | 1009.9 hPa | 1.52 mm | - | - | - |
| 1777516207 | 13.89° C | 97% | 1009.6 hPa | 1.52 mm | - | - | - |
* Rain latest hour (hover to see other rain measurements)
** Current wind speed in m/s (hover to see current wind gust speed)